Regional Weather Roundup
Issued by NWS

Home | Current Version | Previous Version | Graphics & Text | Print | Product List | Glossary On
Versions: 1 2 3 4 5 6 7 8 9 10 11 12 13 14 15 16 17 18 19 20 21 22 23 24 25 26 27 28 29 30 31 32 33 34 35 36 37 38 39 40 41 42 43 44 45 46 47 48 49 50
000
ASUS43 KLMK 241410
RWRKY
KENTUCKY REGIONAL WEATHER ROUNDUP
NATIONAL WEATHER SERVICE LOUISVILLE KY
1000 AM EDT THU APR 24 2014

NOTE "FAIR" INDICATES FEW OR NO CLOUDS BELOW 12,000 FEET
WITH NO SIGNIFICANT WEATHER AND/OR OBSTRUCTIONS TO VISIBILITY.

KYZ001>023-026-027-061>063-070>075-241500-
WESTERN AND SOUTH CENTRAL KENTUCKY

CITY           SKY/WX    TMP DP  RH WIND       PRES   REMARKS
PADUCAH        MOSUNNY   62  39  42 SE12      29.93F
HENDERSON      PTSUNNY   54  37  54 SE13      29.98F
OWENSBORO      PTSUNNY   56  38  50 SE8       30.01S
HOPKINSVILLE   SUNNY     58  39  49 SE9       29.98S
BOWLING GREEN  CLOUDY    58  38  47 E7        30.02R
GLASGOW        MOSUNNY   57  38  48 E5        30.02S
$$

KYZ024-025-028>034-038-045-046-053-241500-
NORTH CENTRAL KENTUCKY

CITY           SKY/WX    TMP DP  RH WIND       PRES   REMARKS
LOUISVILLE/SDF CLOUDY    55  36  48 E10       30.05F
LOUISVILLE/LOU CLOUDY    56  35  45 E8        30.05F
FORT KNOX      CLOUDY    53  36  51 E14       30.02F
$$

KYZ035>037-039>044-047>052-055>060-089>105-241500-
NORTHEAST KENTUCKY

CITY           SKY/WX    TMP DP  RH WIND       PRES   REMARKS
LEXINGTON      PTSUNNY   52  36  54 E12       30.07F
COVINGTON      PTSUNNY   51  33  50 E10       30.10S
FRANKFORT      PTSUNNY   53  38  56 E13       30.06F
$$

KYZ054-064>069-076>088-106>120-241500-
SOUTHEAST KENTUCKY

CITY           SKY/WX    TMP DP  RH WIND       PRES   REMARKS
JACKSON        CLOUDY    50  33  52 E6        30.09S
LONDON         CLOUDY    53  34  48 E3        30.07R
SOMERSET       PTSUNNY   52  34  50 E5        30.07R
MIDDLESBORO    MOSUNNY   55  36  49 CALM      30.08S
MONTICELLO     MOSUNNY   57  36  45 E6        30.06S
$$




USA.gov is the U.S. government's official web portal to all federal, state and local government web resources and services.